Zurück zum Katalog

STARLINK-5085

AktivKommunikationVLEO
NORAD 55392·PAYLOAD·🇺🇸 United States

Gestartet Jan 31, 2023 von Vandenberg Space Force Base

Loading…

Nächste Überflüge (nächste 24 Stunden)

TLE

AktuellSource: CelesTrak SupGP

Epoche: Sep 15, 2026, 01:51 UTC

1 55392C 23014B   26258.07756944  .00010064  00000+0  84308-3 0  2583
2 55392  69.9998 286.8310 0003765 265.8857 317.9649 14.98337501    17

Verfolge STARLINK-5085 in Echtzeit mit AllMySat

Download on the App Store